York, NE

10:17 PM CDT on April 28, 2017 (GMT -0500)
York Municipal

Weather History for KJYR - December, 2012

Change the Weather History Date:

Saturday, December 1, 2012

  Actual Average Record
Temperature  
Mean Temperature 44 °F -  
Max Temperature 57 °F 41 °F 63 °F (1970)
Min Temperature 32 °F 22 °F -3 °F (1985)
Degree Days  
Heating Degree Days 20    
Moisture  
Dew Point 41 °F    
Average Humidity 90    
Maximum Humidity 100    
Minimum Humidity 72    
Precipitation  
Precipitation 0.00 in - - ()
Sea Level Pressure  
Sea Level Pressure 29.84 in    
Wind  
Wind Speed 7 mph (SW)    
Max Wind Speed 13 mph    
Max Gust Speed -    
Visibility 5 miles    
Events Fog    
Averages and records for this station are not official NWS values.
T = Trace of Precipitation, MM = Missing Value Source: NWS Daily Summary

Daily Weather History Graph

Daily Weather History Graph

Search for Another Location

Airport or City:

Trip Planner

Search our weather history database for the weather conditions in past years. The results will help you decide how hot, cold, wet, or windy it might be!

Date:

Astronomy

Dec. 01, 2012 Rise Set
Actual Time 7:36 AM CST 5:03 PM CST
Civil Twilight 7:05 AM CST 5:33 PM CST
Nautical Twilight 6:31 AM CST 6:07 PM CST
Astronomical Twilight 5:58 AM CST 6:40 PM CST
Moon 7:54 PM CST (12/1) 9:49 AM CST (12/1)
Length of Visible Light 10h 27m
Length of Day
9h 26m
Waning Gibbous, 91% of the Moon is Illuminated
Dec 1
Waning Gibbous
Dec 6
Last Quarter
Dec 13
New
Dec 19
First Quarter
Dec 28
Full

Hourly Weather History & Observations

Time (CST) Temp. Windchill Dew Point Humidity Pressure Visibility Wind Dir Wind Speed Gust Speed Precip Events Conditions
12:15 AM 32.0 °F 26.4 °F 28.4 °F 87% 29.92 in 7.0 mi SE 5.8 mph - N/A   Clear
12:35 AM 32.0 °F 26.4 °F 28.4 °F 87% 29.91 in 7.0 mi SE 5.8 mph - N/A   Clear
12:55 AM 32.0 °F 25.6 °F 28.4 °F 87% 29.91 in 7.0 mi SSE 6.9 mph - N/A   Clear
1:15 AM 33.8 °F 27.0 °F 28.4 °F 81% 29.90 in 7.0 mi SSE 8.1 mph - N/A   Clear
1:35 AM 32.0 °F 25.6 °F 28.4 °F 87% 29.89 in 7.0 mi SSE 6.9 mph - N/A   Clear
1:55 AM 32.0 °F 25.6 °F 28.4 °F 87% 29.88 in 7.0 mi SSE 6.9 mph - N/A   Clear
2:15 AM 32.0 °F 25.6 °F 28.4 °F 87% 29.88 in 7.0 mi SSE 6.9 mph - N/A   Clear
2:35 AM 32.0 °F 24.2 °F 28.4 °F 87% 29.87 in 7.0 mi SSE 9.2 mph - N/A   Clear
2:55 AM 32.0 °F 24.8 °F 28.4 °F 87% 29.86 in 6.0 mi SSE 8.1 mph - N/A   Clear
3:15 AM 32.0 °F 24.8 °F 30.2 °F 93% 29.85 in 7.0 mi SSE 8.1 mph - N/A   Clear
3:35 AM 33.8 °F 27.0 °F 32.0 °F 93% 29.85 in 6.0 mi South 8.1 mph - N/A   Scattered Clouds
3:55 AM 35.6 °F 28.6 °F 33.8 °F 93% 29.84 in 5.0 mi South 9.2 mph - N/A   Overcast
4:15 AM 37.4 °F 32.8 °F 37.4 °F 100% 29.84 in 0.2 mi SSE 5.8 mph - N/A Fog Fog
4:35 AM 35.6 °F 30.7 °F 35.6 °F 100% 29.84 in 0.2 mi SSE 5.8 mph - N/A   Overcast
4:55 AM 37.4 °F 32.1 °F 35.6 °F 93% 29.84 in 0.2 mi South 6.9 mph - N/A   Overcast
5:15 AM 37.4 °F 32.1 °F 37.4 °F 100% 29.84 in 0.2 mi SSW 6.9 mph - N/A Fog Fog
5:35 AM 39.2 °F 33.6 °F 39.2 °F 100% 29.84 in 0.2 mi SSW 8.1 mph - N/A Fog Fog
5:55 AM 41.0 °F 34.7 °F 41.0 °F 100% 29.83 in 0.2 mi SSW 10.4 mph - N/A Fog Fog
6:15 AM 41.0 °F 36.4 °F 41.0 °F 100% 29.84 in 0.2 mi SW 6.9 mph - N/A Fog Fog
6:35 AM 41.0 °F 35.8 °F 41.0 °F 100% 29.84 in 0.2 mi SSW 8.1 mph - N/A   Overcast
6:55 AM 41.0 °F 37.1 °F 41.0 °F 100% 29.83 in 0.2 mi SSW 5.8 mph - N/A Fog Fog
7:15 AM 42.8 °F - 41.0 °F 93% 29.84 in 0.2 mi Calm Calm - N/A   Overcast
7:35 AM 41.0 °F - 41.0 °F 100% 29.84 in 0.2 mi Calm Calm - N/A Fog Fog
7:55 AM 41.0 °F - 41.0 °F 100% 29.85 in 0.2 mi Calm Calm - N/A Fog Fog
8:15 AM 41.0 °F - 41.0 °F 100% 29.85 in 0.2 mi Calm Calm - N/A Fog Fog
8:35 AM 42.8 °F - 42.8 °F 100% 29.85 in 0.2 mi Calm Calm - N/A Fog Fog
8:55 AM 44.6 °F - 44.6 °F 100% 29.86 in 0.2 mi Calm Calm - N/A Fog Fog
9:15 AM 44.6 °F - 44.6 °F 100% 29.85 in 0.2 mi Calm Calm - N/A Fog Fog
9:35 AM 44.6 °F - 44.6 °F 100% 29.85 in 0.2 mi Calm Calm - N/A Fog Fog
9:55 AM 46.4 °F 42.4 °F 46.4 °F 100% 29.85 in 0.2 mi SW 8.1 mph - N/A Fog Fog
10:15 AM 48.2 °F - 46.4 °F 93% 29.86 in 0.5 mi WSW 6.9 mph - N/A Fog Fog
10:35 AM 48.2 °F - 48.2 °F 100% 29.85 in 1.0 mi SW 6.9 mph - N/A   Overcast
10:55 AM 48.2 °F - 48.2 °F 100% 29.84 in 1.5 mi SW 5.8 mph - N/A   Overcast
11:15 AM 48.2 °F - 48.2 °F 100% 29.83 in 1.8 mi SSW 9.2 mph - N/A   Overcast
11:35 AM 48.2 °F - 48.2 °F 100% 29.83 in 2.0 mi SSW 6.9 mph - N/A   Overcast
11:55 AM 50.0 °F - 48.2 °F 94% 29.82 in 2.5 mi SW 5.8 mph - N/A   Overcast
12:15 PM 50.0 °F - 48.2 °F 94% 29.82 in 2.0 mi West 10.4 mph - N/A   Overcast
12:35 PM 50.0 °F - 48.2 °F 94% 29.80 in 1.8 mi SW 8.1 mph - N/A   Overcast
12:55 PM 50.0 °F - 48.2 °F 94% 29.80 in 2.5 mi SW 6.9 mph - N/A   Overcast
1:15 PM 50.0 °F - 48.2 °F 94% 29.81 in 3.0 mi WSW 11.5 mph - N/A   Overcast
1:35 PM 50.0 °F - 48.2 °F 94% 29.80 in 4.0 mi WSW 11.5 mph - N/A   Overcast
1:55 PM 50.0 °F - 48.2 °F 94% 29.78 in 5.0 mi SSW 11.5 mph - N/A   Overcast
2:15 PM 51.8 °F - 48.2 °F 88% 29.79 in 7.0 mi WSW 10.4 mph - N/A   Mostly Cloudy
2:35 PM 53.6 °F - 48.2 °F 82% 29.78 in 7.0 mi WSW 9.2 mph - N/A   Partly Cloudy
2:55 PM 53.6 °F - 48.2 °F 82% 29.78 in 8.0 mi SW 8.1 mph - N/A   Clear
3:15 PM 55.4 °F - 48.2 °F 77% 29.78 in 7.0 mi SW 9.2 mph - N/A   Clear
3:35 PM 57.2 °F - 48.2 °F 72% 29.78 in 8.0 mi SW 8.1 mph - N/A   Clear
3:55 PM 57.2 °F - 48.2 °F 72% 29.79 in 9.0 mi WSW 8.1 mph - N/A   Clear
4:15 PM 55.4 °F - 46.4 °F 72% 29.80 in 7.0 mi SW 8.1 mph - N/A   Clear
4:35 PM 55.4 °F - 46.4 °F 72% 29.81 in 8.0 mi SSW 3.5 mph - N/A   Clear
4:55 PM 51.8 °F - 46.4 °F 82% 29.81 in 8.0 mi SSW 3.5 mph - N/A   Clear
5:15 PM 50.0 °F - 44.6 °F 82% 29.81 in 9.0 mi South 6.9 mph - N/A   Clear
5:35 PM 46.4 °F 42.9 °F 42.8 °F 87% 29.82 in 9.0 mi SSW 6.9 mph - N/A   Clear
5:55 PM 48.2 °F - 44.6 °F 87% 29.82 in 9.0 mi SSW 8.1 mph - N/A   Clear
6:15 PM 44.6 °F 40.2 °F 41.0 °F 87% 29.82 in 9.0 mi SW 8.1 mph - N/A   Clear
6:35 PM 46.4 °F 42.4 °F 42.8 °F 87% 29.82 in 9.0 mi SW 8.1 mph - N/A   Clear
6:55 PM 46.4 °F 41.9 °F 42.8 °F 87% 29.83 in 8.0 mi SW 9.2 mph - N/A   Clear
7:15 PM 46.4 °F 41.5 °F 42.8 °F 87% 29.84 in 9.0 mi SW 10.4 mph - N/A   Clear
7:35 PM 46.4 °F 42.4 °F 42.8 °F 87% 29.84 in 10.0 mi SW 8.1 mph - N/A   Clear
7:55 PM 46.4 °F 41.9 °F 41.0 °F 81% 29.84 in 10.0 mi SW 9.2 mph - N/A   Clear
8:15 PM 46.4 °F 41.5 °F 41.0 °F 81% 29.84 in 10.0 mi SW 10.4 mph - N/A   Clear
8:35 PM 44.6 °F 39.7 °F 41.0 °F 87% 29.84 in 10.0 mi WSW 9.2 mph - N/A   Clear
8:55 PM 44.6 °F 40.2 °F 39.2 °F 81% 29.85 in 10.0 mi WSW 8.1 mph - N/A   Clear
9:15 PM 44.6 °F 39.7 °F 39.2 °F 81% 29.85 in 10.0 mi SW 9.2 mph - N/A   Clear
9:35 PM 44.6 °F 39.2 °F 39.2 °F 81% 29.85 in 10.0 mi WSW 10.4 mph - N/A   Clear
9:55 PM 42.8 °F 37.0 °F 39.2 °F 87% 29.86 in 10.0 mi WSW 10.4 mph - N/A   Clear
10:15 PM 41.0 °F 34.3 °F 37.4 °F 87% 29.87 in 10.0 mi West 11.5 mph - N/A   Clear
10:35 PM 41.0 °F 36.4 °F 37.4 °F 87% 29.88 in 10.0 mi West 6.9 mph - N/A   Clear
10:55 PM 39.2 °F 33.0 °F 35.6 °F 87% 29.88 in 10.0 mi West 9.2 mph - N/A   Clear
11:15 PM 39.2 °F 34.2 °F 35.6 °F 87% 29.88 in 10.0 mi WSW 6.9 mph - N/A   Clear
11:35 PM 37.4 °F 29.8 °F 33.8 °F 87% 29.90 in 10.0 mi West 11.5 mph - N/A   Clear
11:55 PM 37.4 °F 29.3 °F 32.0 °F 81% 29.90 in 10.0 mi West 12.7 mph - N/A   Clear